sat.trackr.live / text

‹ back to catalog

STARLINK-30483

NORAD 57914 · 2023-147B

PAYLOAD ACTIVE UNKNOWN

§ Identity

Operator
Country
US
Launch date
2023-09-24
Launch site
AFETR
Launch vehicle
Mass (kg)
RCS (m²)

Purposes: comms

External: N2YO · Heavens-Above · Gunter

§ Orbital elements

Epoch: 2026-09-20T10:33:38.257632Z

Period
94.27 min
Inclination
43.0040°
Eccentricity
0.0001182
Mean motion
15.27577622 rev/d
Perigee alt
482.2 km
Apogee alt
483.9 km
Semi-major
6,861.2 km
B*
1.5094e-5
RAAN
159.7836°
Arg perigee
274.0150°
Mean anomaly
86.0567°
Rev number
16,809

§ Raw data

STARLINK-304831 57914U 23147B   26263.44002613  .00000153  00000+0  15094-4 0  99932 57914  43.0040 159.7836 0001182 274.0150  86.0567 15.27577622168099

JSON: /api/v1/satellites/57914 · /tle

For live sub-satellite position, see the globe view (requires WebGL).

§ Visibility from observer

Set your observer location to see the next 7 days of passes ≥ 10°. The values pass through the URL so the page stays shareable.

No JS? Fill the form by hand. The geolocation button needs JavaScript.